Weather History for Broomfield, CO

Change the Weather History Date:

Tuesday, March 13, 2012

  Actual Average Record
Temperature  
Mean Temperature 58 °F -  
Max Temperature 71 °F 50 °F 77 °F (2007)
Min Temperature 44 °F 29 °F 8 °F (1993)
Degree Days  
Heating Degree Days 8    
Growing Degree Days 8 (Base 50)    
Moisture  
Dew Point 1 °F    
Average Humidity 12    
Maximum Humidity 23    
Minimum Humidity 4    
Precipitation  
Precipitation 0.00 in - - ()
Sea Level Pressure  
Sea Level Pressure 29.91 in    
Wind  
Wind Speed 11 mph (WSW)    
Max Wind Speed 21 mph    
Max Gust Speed 26 mph    
Visibility 10 miles    
Events      
Averages and records for this station are not official NWS values.
T = Trace of Precipitation, MM = Missing Value Source: NWS Daily Summary

Daily Weather History Graph

Daily Weather History Graph

Search for Another Location

Airport:

Trip Planner

Search our weather history database for the weather conditions in past years. The results will help you decide how hot, cold, wet, or windy it might be!

Date:

Astronomy

Mar. 13, 2012 Rise Set
Actual Time 7:14 AM MDT 7:05 PM MDT
Civil Twilight 6:47 AM MDT 7:32 PM MDT
Nautical Twilight 6:15 AM MDT 8:04 PM MDT
Astronomical Twilight 5:44 AM MDT 8:35 PM MDT
Moon 12:40 AM MDT (3/13) 10:30 AM MDT (3/13)
Length of Visible Light 12h 45m
Length of Day
11h 51m
Waning Gibbous, 65% of the Moon is Illuminated
Mar 13
Waning Gibbous
Mar 14
Last Quarter
Mar 22
New
Mar 30
First Quarter
Apr 6
Full

Hourly Weather History & Observations

Time (MDT) Temp. Windchill Dew Point Humidity Pressure Visibility Wind Dir Wind Speed Gust Speed Precip Events Conditions
12:17 AM 46.4 °F 41.9 °F 8.6 °F 22% 29.95 in 10.0 mi SSW 9.2 mph - N/A   Clear
12:37 AM 46.4 °F 40.7 °F 8.6 °F 22% 29.95 in 10.0 mi West 12.7 mph - N/A   Clear
12:57 AM 50.0 °F - 1.4 °F 14% 29.95 in 10.0 mi West 13.8 mph - N/A   Clear
1:17 AM 46.4 °F 41.9 °F 3.2 °F 17% 29.95 in 10.0 mi West 9.2 mph - N/A   Clear
1:37 AM 46.4 °F 41.5 °F 3.2 °F 17% 29.95 in 10.0 mi West 10.4 mph - N/A   Clear
1:57 AM 46.4 °F 41.5 °F 5.0 °F 18% 29.95 in 10.0 mi WSW 10.4 mph - N/A   Clear
2:17 AM 50.0 °F - 1.4 °F 14% 29.95 in 10.0 mi WSW 10.4 mph - N/A   Clear
2:37 AM 51.8 °F - 1.4 °F 13% 29.95 in 10.0 mi WSW 17.3 mph 21.9 mph N/A   Clear
2:57 AM 51.8 °F - -0.4 °F 12% 29.95 in 10.0 mi West 20.7 mph 26.5 mph N/A   Clear
3:17 AM 55.4 °F - -4.0 °F 9% 29.95 in 10.0 mi WSW 17.3 mph 23.0 mph N/A   Clear
3:37 AM 51.8 °F - 1.4 °F 13% 29.94 in 10.0 mi West 18.4 mph 23.0 mph N/A   Clear
3:57 AM 50.0 °F - 1.4 °F 14% 29.94 in 10.0 mi West 17.3 mph - N/A   Clear
4:17 AM 53.6 °F - 1.4 °F 12% 29.94 in 10.0 mi WNW 15.0 mph - N/A   Clear
4:37 AM 51.8 °F - 1.4 °F 13% 29.95 in 10.0 mi WNW 10.4 mph - N/A   Clear
4:57 AM 51.8 °F - 3.2 °F 14% 29.95 in 10.0 mi West 12.7 mph - N/A   Clear
5:17 AM 51.8 °F - 3.2 °F 14% 29.95 in 10.0 mi West 11.5 mph - N/A   Clear
5:37 AM 50.0 °F - 5.0 °F 16% 29.95 in 10.0 mi West 5.8 mph - N/A   Clear
5:48 AM 55.4 °F - 1.4 °F 11% 29.95 in 30.0 mi WSW 9.2 mph - N/A   Partly Cloudy
5:57 AM 53.6 °F - 3.2 °F 13% 29.95 in 10.0 mi WSW 10.4 mph - N/A   Clear
6:48 AM 48.2 °F - 6.8 °F 19% 29.96 in 40.0 mi Calm Calm - N/A   Scattered Clouds
7:45 AM 44.6 °F 39.7 °F 8.6 °F 23% 29.95 in 40.0 mi SW 9.2 mph - N/A   Scattered Clouds
8:55 AM 50.0 °F - 10.4 °F 20% 29.96 in 40.0 mi SW 4.6 mph - N/A   Scattered Clouds
9:45 AM 53.6 °F - 10.4 °F 18% 29.96 in 50.0 mi South 8.1 mph - N/A   Scattered Clouds
10:47 AM 59.0 °F - 3.2 °F 11% 29.95 in 60.0 mi SE 8.1 mph - N/A   Scattered Clouds
11:48 AM 64.4 °F - 3.2 °F 9% 29.92 in 60.0 mi SSE 11.5 mph - N/A   Scattered Clouds
12:48 PM 66.2 °F - -2.2 °F 6% 29.89 in 60.0 mi SSE 11.5 mph - N/A   Scattered Clouds
1:50 PM 69.8 °F - -4.0 °F 5% 29.85 in 50.0 mi ESE 13.8 mph - N/A   Scattered Clouds
2:49 PM 71.6 °F - -2.2 °F 5% 29.81 in 50.0 mi ESE 9.2 mph - N/A   Scattered Clouds
3:46 PM 71.6 °F - -5.8 °F 5% 29.80 in 50.0 mi ESE 9.2 mph - N/A   Scattered Clouds
4:45 PM 71.6 °F - -5.8 °F 5% 29.80 in 70.0 mi NNW 10.4 mph - N/A   Mostly Cloudy
5:52 PM 71.6 °F - -9.4 °F 4% 29.78 in 60.0 mi NNE 9.2 mph - N/A   Scattered Clouds
6:46 PM 66.2 °F - -5.8 °F 5% 29.80 in 60.0 mi SW 10.4 mph - N/A   Scattered Clouds
7:46 PM 59.0 °F - -5.8 °F 7% 29.82 in 30.0 mi West 17.3 mph - N/A   Scattered Clouds
8:51 PM 59.0 °F - -5.8 °F 7% 29.86 in 50.0 mi WSW 12.7 mph - N/A   Scattered Clouds
9:50 PM 53.6 °F - -2.2 °F 10% 29.86 in 20.0 mi North - - N/A   Scattered Clouds